NOAA 16 DEB, 41285

Orbit data source: Space-Track

NOAA 16 DEB, 41285 is space debris in SSO originally from a launch on Thu, 21 Sep 2000 UTC launched from the Air Force Western Test Range (AFWTR). Debris objects in space refer to the collection of defunct objects orbiting the Earth. Examples of debris include non-operational satellites, rocket bodies, and fragments generated from explosions, collisions, or faulty payload assembly.

Loading next visibility...
Identifier
41285, 2000-055GM
Orbit
SSO
Country
Flag of USUS
Related business
Manufacturer
Unknown
Mission
Spacecraft
Bus & Motor
Unknown
Mass
Unknown
Launch date (UTC)
2000-09-21 (25 years ago)
Launch vehicle
Unknown
Launch site
Air Force Western Test Range (AFWTR)
Object type
Payload
Rocket body
Debris
Shape & HBR
Unknown
Radar Cross Section
Small (<0.1 m²)

Expand to show TLE details & history
Last TLE update: 2 days ago

TLE from 2 days ago
0 NOAA 16 DEB
1 41285U 00055GM  25259.14199073  .00003201  00000-0  13700-2 0  9996
2 41285  98.6828 323.8319 0051877  89.4494 271.2630 14.24867688502426
Epoch: 2025-09-16T03:24Z
TLE epoch observation values (Epoch: 2025-09-16T03:24:27.999Z)
Latitude
0.00007°
Longitude
-82.62132°
Altitude
811.231 km
Speed
7.448 km/s
True Right ascension
21h 35m 19s
True Declination
0° 00' 00"
Sunlit
Object was in full shadow at epoch
Visualization orbit readout
Latitude
Unknown
Longitude
Unknown
Altitude
Unknown
Speed
Unknown
Apparent Right ascension
Unknown
Apparent Declination
Unknown
Sunlit
N/A
Visualization observer readout
Local Sidereal Time
14:16:57
Azimuth
Unknown
Elevation
Unknown
Doppler factor
Unknown
Orbital elements
Apogee altitude
843.358 km
Perigee altitude
768.819 km
Semi-major axis
7,184.225 km
Eccentricity
0.00519
Inclination
98.6828°
RAAN
323.8319°
Arg. of periapsis
89.4494°
True anomaly
270.6686°
Mean anomaly
271.263°
Eccentric anomaly
270.96581°
Mean motion
3.56429 °/min
Orbital period
101 mins
BSTAR
0.00137
Loading maneuver chart data...
Computing Atmospheric mass density...
Loading historical data...
Loading historical data...
Loading historical data...
Loading historical data...
Loading historical data...
Loading historical data...
Loading historical data...

Documentation

Showing up to 5 results
|